Flag for Japan Weather past 2 weeks in Hiroshima, Japan

Now
57 °F

Passing clouds.


Feels Like: 54 °F
Forecast: 44 / 67 °F
Wind: 15 mph from Northeast

Location: Iwakuni Marine Corps Air Station

Current Time: Apr 2, 2015 at 3:34:31 AM

Latest Report: Apr 2, 2015 at 2:55 AM


Visibility: N/A

Pressure: 30.00 "Hg

Humidity: 78%

Dew point: 50 °F

Location of HiroshimaLocation

Historic Weather in Hiroshima — Graph

°F

Hiroshima temperature yesterday

Maximum temperature yesterday: 75 °F (at 1:55 PM)
Minimum temperature yesterday: 60 °F (at 11:55 PM)
Average temperature yesterday: 65 °F

Past Weeks' High & Low Weather Summary

 TemperatureHumidityPressure
High75 °F (Apr 1, 1:55 PM)97% (Mar 18, 8:55 PM)30.58 "Hg (Mar 18, 8:55 PM)
Low36 °F (Mar 25, 4:55 AM)24% (Mar 25, 7:55 PM)29.73 "Hg (Mar 19, 5:55 AM)
Average55 °F68%30.11 "Hg
* Reported Mar 18 1:55 AM — Apr 2 1:55 AM, Hiroshima, Weather by CustomWeather, © 2015

Note: Actual official high and low records may vary slightly from our data, if they occured in-between our weather recording intervals... More about our weather records

Advertising

Hiroshima weather history for previous 24 hours

 ConditionsComfort  
Time TempWeatherWind HumidityBarometerVisibility
1:55 AM
Thu, Apr 2
58 °FPassing clouds.12 mph78%30.01 "HgN/A
12:55 AM59 °FPassing clouds.12 mph78%30.02 "HgN/A
11:55 PM
Wed, Apr 1
60 °FPassing clouds.13 mph75%30.01 "HgN/A
10:55 PM61 °FPassing clouds.9 mph75%30.01 "HgN/A
9:55 PM61 °FPassing clouds.10 mph75%30.00 "HgN/A
8:55 PM62 °FPassing clouds.17 mph75%29.98 "HgN/A
7:55 PM62 °FPartly cloudy.16 mph78%29.94 "HgN/A
6:55 PM64 °FPassing clouds.17 mph73%29.92 "HgN/A
5:55 PM67 °FPartly sunny.16 mph68%29.88 "HgN/A
4:55 PM68 °FBroken clouds.5 mph84%29.86 "HgN/A
3:55 PM72 °FPartly sunny.10 mph64%29.85 "HgN/A
2:55 PM72 °FBroken clouds.10 mph68%29.84 "HgN/A
1:55 PM75 °FPartly sunny.8 mph71%29.84 "HgN/A
12:55 PM73 °FBroken clouds.10 mph74%29.86 "HgN/A
11:55 AM69 °FPartly sunny.5 mph87%29.90 "HgN/A
10:55 AM68 °FPartly sunny.6 mph87%29.92 "HgN/A
9:55 AM68 °FFog.No wind90%29.93 "Hg5 mi
8:55 AM66 °FFog.No wind90%29.92 "Hg5 mi
7:55 AM64 °FFog.5 mph94%29.92 "Hg6 mi
6:55 AM64 °FSprinkles. Fog.12 mph97%29.92 "Hg4 mi
5:55 AM63 °FSprinkles. Fog.14 mph97%29.91 "Hg4 mi
4:55 AM63 °FSprinkles. Fog.9 mph97%29.91 "Hg5 mi
3:55 AM64 °FSprinkles. Fog.15 mph90%29.91 "Hg5 mi
Weather by CustomWeather, © 2015

See weather overviewHow to use our weather pages